Flag for Denmark Weather past 2 weeks in Skagen, Denmark

41 °F

Partly cloudy.

Feels Like: 36 °F
Forecast: 45 / 48 °F
Wind: 8 mph from Southwest

Location: Gothenburg / Save

Current Time: Nov 29, 2015 at 5:24:57 PM

Latest Report: Nov 29, 2015 at 4:50 PM

Visibility: N/A

Pressure: 29.12 "Hg

Humidity: 87%

Dew point: 37 °F

Location of SkagenLocation

Historic Weather in Skagen — Graph


Skagen temperature yesterday

Maximum temperature yesterday: 45 °F (at 12:50 AM)
Minimum temperature yesterday: 37 °F (at 6:50 PM)
Average temperature yesterday: 43 °F

Past Weeks' High & Low Weather Summary

High52 °F (Nov 16, 1:50 PM)100% (Nov 15, 9:50 PM)29.98 "Hg (Nov 15, 9:50 PM)
Low16 °F (Nov 23, 12:20 AM)66% (Nov 14, 4:20 PM)29.09 "Hg (Nov 19, 4:20 AM)
Average40 °F86%29.53 "Hg
* Reported Nov 14 4:20 PM — Nov 29 4:20 PM, Skagen, Weather by CustomWeather, © 2015

Note: Actual official high and low records may vary slightly from our data, if they occured in-between our weather recording intervals... More about our weather records


Skagen weather history for previous 24 hours

Time TempWeatherWind HumidityBarometerVisibility
4:20 PM
Sun, Nov 29
41 °FMostly cloudy.14 mph81%29.15 "HgN/A
3:50 PM43 °FDrizzle. Mostly cloudy.15 mph81%29.15 "HgN/A
3:20 PM39 °FLight rain. Mostly cloudy.5 mph87%29.18 "HgN/A
2:50 PM37 °FRain. Broken clouds.13 mph87%29.18 "Hg4 mi
2:20 PM41 °FRain showers. Broken clouds.15 mph81%29.18 "HgN/A
1:50 PM41 °FScattered clouds.13 mph81%29.18 "HgN/A
1:20 PM37 °FBroken clouds.6 mph93%29.18 "HgN/A
12:50 PM41 °FRain showers. Partly sunny.9 mph81%29.18 "Hg4 mi
12:20 PM37 °FLight rain. Broken clouds.12 mph93%29.18 "HgN/A
11:50 AM37 °FRain showers. Partly sunny.15 mph87%29.18 "Hg1 mi
11:20 AM43 °FBroken clouds.16 mph76%29.18 "HgN/A
10:20 AM43 °FScattered clouds.22 mph81%29.18 "HgN/A
9:50 AM41 °FScattered clouds.12 mph81%29.18 "HgN/A
9:20 AM41 °FBroken clouds.12 mph81%29.18 "HgN/A
8:50 AM43 °FBroken clouds.21 mph76%29.18 "HgN/A
8:20 AM43 °FPassing clouds.18 mph81%29.15 "HgN/A
7:50 AM43 °FPassing clouds.15 mph87%29.15 "HgN/A
7:20 AM45 °FPartly cloudy.23 mph76%29.15 "HgN/A
6:50 AM45 °FPartly cloudy.18 mph81%29.15 "HgN/A
6:20 AM43 °FMostly cloudy.20 mph87%29.15 "HgN/A
5:50 AM43 °FMostly cloudy.20 mph87%29.15 "HgN/A
5:20 AM43 °FLight rain. Mostly cloudy.21 mph87%29.15 "HgN/A
4:50 AM41 °FLight rain. Mostly cloudy.25 mph93%29.18 "HgN/A
4:20 AM43 °FLight rain. Passing clouds.26 mph87%29.21 "Hg2 mi
3:50 AM43 °FLight rain. Passing clouds.28 mph87%29.21 "Hg3 mi
3:20 AM43 °FLight rain. Low clouds.26 mph87%29.24 "Hg4 mi
2:50 AM43 °FDrizzle. Mostly cloudy.26 mph87%29.27 "HgN/A
2:20 AM45 °FOvercast.29 mph76%29.27 "HgN/A
1:50 AM45 °FMostly cloudy.25 mph81%29.30 "HgN/A
1:20 AM45 °FPassing clouds.24 mph81%29.33 "HgN/A
12:50 AM45 °FPassing clouds.24 mph76%29.36 "HgN/A
12:20 AM43 °FPassing clouds.23 mph81%29.36 "HgN/A
11:50 PM
Sat, Nov 28
43 °FPassing clouds.22 mph81%29.39 "HgN/A
11:20 PM43 °FClear.18 mph81%29.42 "Hg10 mi
10:50 PM43 °FClear.17 mph81%29.42 "Hg10 mi
10:20 PM43 °FClear.15 mph81%29.42 "Hg10 mi
9:20 PM41 °FClear.15 mph87%29.45 "Hg10 mi
8:50 PM41 °FClear.12 mph81%29.47 "Hg10 mi
8:20 PM41 °FClear.12 mph81%29.47 "Hg10 mi
7:50 PM39 °FClear.10 mph87%29.47 "Hg10 mi
7:20 PM37 °FPassing clouds.8 mph87%29.47 "HgN/A
6:50 PM37 °FFog.15 mph87%29.47 "Hg3 mi
6:20 PM41 °FPassing clouds.8 mph76%29.47 "HgN/A
5:50 PM43 °FPassing clouds.14 mph71%29.47 "HgN/A
5:20 PM43 °FPassing clouds.10 mph71%29.45 "HgN/A
Weather by CustomWeather, © 2015

See weather overviewHow to use our weather pages